Vorticity
16 7 11 13 17 8 5 5 6 9 5 2 4 3 2 3 5 5 7 7 7 8 7 7 8 8 8 8 7 7 8 9 6 6 5 4 2 2 3 4 4 3 2
-1 11 5 15 10 12 1 5 4 5 4 9 6 7 3 4 6 7 7 7 7 7 8 8 8 7 7 6 7 7 5 3 4 3 1 2 5 6 5 4 4 5 5
8 12 6 16 6 10 6 3 8 2 3 5 10 6 3 4 3 2 6 4 5 6 7 8 7 8 7 7 7 6 5 5 3 1 3 11 6 5 5 5 5 6 6
10 9 10 6 9 11 9 2 4 4 3 5 5 3 1 -0 1 5 7 7 6 4 5 7 7 8 8 6 6 3 2 2 2 7 7 5 2 5 7 6 7 7 8
14 10 9 12 16 3 10 8 8 9 1 6 4 6 3 3 1 2 5 6 7 6 5 4 2 2 2 0 1 1 5 4 6 7 4 3 5 6 4 7 6 7 5
6 7 11 -4 18 14 5 9 5 16 11 1 3 5 4 3 1 3 2 4 7 7 6 5 6 7 8 6 11 5 2 6 2 4 7 7 10 11 9 6 5 7 9
-0 16 10 9 18 34 -19 14 13 26 7 13 9 2 5 3 3 4 2 3 6 7 6 6 4 6 7 8 6 4 4 11 11 12 9 8 10 7 8 8 9 5 7
8 4 8 7 9 31 -5 66 13 14 -2 21 -2 9 4 4 5 3 3 3 7 9 10 8 7 7 12 7 14 5 2 7 12 21 4 11 4 10 4 4 5 5 6
20 6 19 13 13 -14 44 -2 -1 28 2 14 0 -14 11 3 4 2 4 4 6 9 9 8 8 5 8 24 3 13 18 7 15 11 8 6 6 9 13 6 2 5 5
7 22 11 11 17 16 13 -46 19 51 -2 11 11 -24 28 8 6 10 6 3 6 9 8 8 6 6 9 -3 -1 2 3 7 8 11 1 5 6 6 4 5 5 5 3
16 15 36 21 14 23 -14 36 2 -13 18 -11 23 -2 14 14 3 12 23 5 5 10 7 7 6 5 0 7 2 5 1 3 5 7 3 2 6 6 5 5 4 3 3
20 10 -7 -2 19 8 -11 48 1 -17 -2 7 9 -16 2 13 74 -1 23 4 8 12 10 4 4 8 8 4 4 5 2 5 3 5 1 4 6 5 5 4 4 3 4
22 13 36 30 15 30 37 14 5 63 56 -34 6 16 19 11 65 22 -10 5 7 10 5 4 7 0 11 2 4 5 2 2 5 3 5 7 7 6 5 4 3 3 3
25 17 2 14 -7 22 7 8 5 10 -0 51 -27 32 -30 7 26 29 37 -2 6 12 11 -6 8 -1 1 2 5 4 2 4 2 3 5 6 7 7 6 4 3 2 3
14 24 32 7 30 17 6 19 29 35 34 -5 13 28 29 -9 33 -4 -3 32 1 9 0 3 4 15 11 5 6 9 7 5 6 6 4 8 7 8 7 5 4 3 3
8 16 19 11 11 18 29 22 20 8 2 -0 44 -28 40 -29 -37 -19 105 1 2 41 59 12 -4 13 7 0 8 7 7 7 8 6 6 8 8 8 7 6 4 4 4
11 6 10 20 16 22 11 21 14 14 18 34 16 27 30 22 -1 -10 -6 -6 -23 17 -12 -6 -7 13 -1 7 6 5 5 5 5 6 7 7 7 7 7 6 6 5 5
11 11 6 10 14 15 16 24 22 24 16 27 9 21 15 11 8 20 5 -7 1 -3 13 -0 1 -8 8 10 8 7 7 5 7 7 7 8 8 8 8 8 6 6 5
11 12 10 8 9 10 10 13 13 17 22 20 21 26 0 18 12 -5 12 6 -2 1 -5 13 59 12 8 2 6 6 7 7 8 8 7 9 10 8 8 7 6 5 6
16 14 13 14 12 7 11 5 8 11 14 16 18 19 5 13 29 18 7 -1 31 7 24 -2 45 2 -7 -5 -0 3 6 6 6 8 9 8 8 9 9 7 6 6 7
12 14 16 15 16 17 11 10 9 7 7 13 13 18 22 9 8 19 17 15 4 6 -17 38 2 13 18 25 10 10 6 7 7 8 8 8 8 9 10 9 11 14 14
11 12 12 15 18 17 18 14 12 11 7 6 8 8 14 19 13 10 14 15 22 22 22 15 12 7 -12 -7 6 6 6 7 7 7 8 8 9 11 13 14 13 10 7
10 10 10 11 12 17 17 17 18 17 16 10 9 11 7 7 14 13 12 17 13 18 22 16 12 12 11 -2 21 7 9 7 8 8 7 7 7 9 9 7 7 7 8
10 10 10 10 10 11 12 15 17 18 18 14 15 13 11 7 6 8 10 7 9 11 15 10 12 12 18 19 11 9 8 11 8 8 6 7 8 8 8 8 7 7 6
10 9 9 10 10 10 11 11 10 13 16 19 17 19 15 12 14 14 8 4 10 5 8 10 10 13 10 7 13 12 14 18 8 3 8 7 7 7 7 7 6 7 6
9 9 9 8 8 9 11 11 11 10 11 11 13 17 17 17 16 15 14 16 12 5 6 7 6 5 7 8 10 10 12 13 15 8 6 10 10 8 7 8 8 8 7
Height
3058 3065 3070 3077 3084 3090 3096 3102 3108 3114 3119 3123 3129 3134 3140 3146 3150 3155 3159 3163 3167 3171 3173 3177 3180 3183 3186 3189 3191 3194 3197 3200 3202 3205 3207 3209 3211 3212 3214 3215 3215 3216 3217
3048 3055 3063 3070 3077 3085 3092 3097 3103 3110 3114 3121 3127 3133 3138 3142 3146 3151 3156 3159 3164 3168 3172 3176 3179 3182 3185 3188 3190 3193 3195 3198 3201 3204 3206 3208 3211 3212 3213 3214 3214 3215 3216
3042 3048 3055 3062 3069 3076 3083 3092 3098 3103 3109 3116 3122 3127 3132 3136 3140 3147 3153 3157 3161 3165 3169 3173 3177 3180 3183 3187 3190 3192 3195 3197 3200 3202 3205 3206 3208 3210 3211 3212 3213 3214 3214
3035 3041 3048 3055 3063 3070 3075 3084 3091 3097 3104 3110 3116 3122 3127 3132 3139 3144 3148 3153 3157 3161 3165 3170 3174 3178 3182 3185 3188 3191 3193 3196 3198 3200 3202 3205 3207 3208 3209 3211 3212 3213 3213
3028 3034 3040 3047 3054 3062 3069 3075 3083 3090 3097 3104 3110 3117 3122 3129 3134 3138 3143 3147 3153 3158 3162 3166 3171 3175 3179 3183 3186 3189 3191 3194 3196 3199 3201 3203 3205 3207 3208 3209 3210 3211 3211
3020 3027 3033 3040 3048 3054 3062 3070 3077 3081 3089 3096 3104 3110 3117 3122 3127 3133 3137 3142 3148 3152 3157 3161 3166 3171 3175 3179 3183 3186 3188 3192 3194 3196 3198 3201 3203 3204 3206 3207 3208 3208 3209
3014 3021 3027 3034 3041 3048 3055 3062 3067 3059 3077 3088 3096 3103 3110 3116 3123 3129 3133 3138 3143 3147 3152 3157 3162 3166 3171 3174 3178 3182 3185 3189 3191 3193 3195 3197 3200 3202 3203 3205 3206 3206 3208
3006 3014 3021 3025 3034 3041 3046 3051 3053 3048 3065 3078 3082 3093 3101 3108 3115 3122 3128 3133 3139 3144 3148 3153 3158 3162 3166 3170 3173 3177 3181 3185 3187 3190 3192 3194 3197 3199 3200 3202 3203 3204 3205
3000 3007 3015 3020 3027 3033 3039 3038 3046 3056 3067 3072 3069 3080 3090 3097 3105 3114 3121 3127 3133 3138 3143 3148 3153 3157 3161 3165 3170 3173 3177 3180 3183 3186 3189 3192 3193 3195 3197 3199 3200 3201 3202
2995 3002 3006 3014 3021 3026 3033 3040 3047 3050 3060 3065 3071 3074 3083 3087 3098 3105 3112 3119 3126 3131 3135 3142 3147 3152 3156 3161 3165 3169 3172 3176 3179 3182 3185 3188 3190 3191 3193 3195 3196 3198 3198
2989 2997 3001 3009 3014 3020 3024 3031 3042 3046 3054 3061 3066 3069 3073 3079 3088 3093 3102 3108 3117 3123 3128 3135 3141 3146 3151 3155 3159 3163 3167 3171 3174 3178 3181 3184 3186 3187 3189 3191 3192 3193 3195
2983 2988 2993 2997 3007 3011 3020 3021 3031 3042 3042 3044 3055 3062 3067 3072 3074 3085 3083 3098 3109 3116 3120 3127 3133 3139 3145 3149 3153 3157 3161 3165 3169 3172 3175 3178 3180 3182 3184 3186 3188 3189 3190
2980 2985 2990 2995 3002 3005 3008 3016 3023 3029 3038 3042 3044 3053 3057 3067 3070 3072 3082 3093 3103 3108 3114 3120 3127 3132 3137 3142 3147 3151 3154 3158 3162 3165 3169 3172 3175 3177 3179 3181 3183 3184 3185
2981 2983 2986 2989 2993 2996 3004 3009 3015 3023 3029 3037 3042 3048 3053 3059 3069 3064 3075 3083 3093 3100 3107 3113 3119 3120 3129 3135 3139 3143 3147 3151 3155 3159 3161 3164 3168 3170 3172 3175 3177 3178 3179
2982 2980 2982 2985 2989 2994 2998 3003 3009 3015 3023 3031 3037 3044 3046 3052 3060 3063 3070 3077 3084 3092 3099 3105 3111 3116 3122 3126 3131 3135 3139 3144 3148 3151 3154 3157 3160 3163 3165 3168 3170 3172 3173
2982 2982 2981 2984 2987 2989 2992 2998 3003 3009 3015 3023 3028 3035 3042 3047 3049 3057 3059 3068 3077 3082 3084 3091 3100 3106 3112 3118 3123 3128 3132 3136 3140 3144 3147 3150 3153 3155 3158 3161 3163 3164 3165
2981 2981 2981 2982 2984 2986 2992 2995 2998 3003 3008 3015 3020 3027 3031 3040 3043 3047 3052 3060 3065 3075 3076 3083 3090 3097 3103 3108 3113 3118 3123 3128 3132 3135 3138 3142 3145 3148 3150 3152 3154 3155 3157
2978 2979 2982 2983 2983 2986 2987 2989 2994 2997 3002 3007 3012 3018 3023 3029 3036 3040 3040 3046 3052 3056 3069 3075 3080 3087 3093 3099 3103 3108 3113 3118 3122 3126 3130 3133 3136 3138 3141 3143 3144 3146 3149
2977 2977 2980 2982 2982 2983 2986 2989 2990 2992 2994 3000 3006 3009 3017 3018 3021 3026 3028 3036 3039 3049 3056 3063 3068 3076 3083 3089 3094 3099 3103 3107 3111 3115 3119 3123 3126 3128 3130 3132 3134 3136 3139
2972 2974 2976 2977 2978 2981 2982 2984 2986 2990 2992 2996 2999 3002 3008 3015 3016 3019 3022 3029 3034 3041 3048 3052 3058 3064 3071 3077 3083 3089 3093 3096 3101 3104 3109 3111 3115 3118 3120 3122 3124 3126 3130
2971 2971 2972 2974 2974 2975 2977 2980 2983 2986 2988 2990 2994 2997 3001 3005 3010 3010 3014 3021 3026 3030 3036 3041 3046 3053 3059 3066 3072 3077 3081 3085 3090 3093 3097 3101 3105 3107 3110 3112 3114 3116 3119
2970 2970 2970 2970 2971 2971 2972 2974 2977 2980 2982 2985 2989 2994 2994 2997 3001 3007 3009 3012 3016 3017 3022 3029 3036 3040 3048 3055 3062 3067 3070 3075 3080 3083 3087 3090 3093 3096 3099 3101 3104 3106 3108
2969 2968 2967 2966 2967 2968 2969 2969 2970 2973 2976 2979 2983 2987 2988 2989 2993 3000 3005 3007 3009 3011 3015 3019 3025 3028 3035 3041 3047 3053 3060 3065 3069 3072 3075 3079 3083 3086 3088 3091 3094 3096 3097
2967 2965 2964 2964 2963 2964 2966 2967 2967 2969 2972 2974 2975 2976 2980 2985 2990 2993 2993 2998 3003 3006 3008 3011 3016 3019 3024 3029 3033 3038 3045 3052 3056 3060 3064 3068 3071 3075 3078 3080 3082 3085 3086
2963 2962 2961 2961 2962 2962 2963 2963 2964 2965 2966 2967 2968 2971 2975 2979 2983 2983 2986 2991 2993 2996 3001 3004 3008 3010 3014 3020 3024 3028 3033 3038 3042 3048 3052 3055 3058 3062 3065 3067 3070 3072 3074
2958 2958 2959 2959 2959 2960 2960 2960 2961 2961 2962 2963 2965 2967 2970 2973 2975 2974 2977 2981 2984 2989 2992 2995 2998 3002 3006 3010 3014 3018 3022 3025 3030 3035 3039 3043 3045 3048 3051 3055 3057 3060 3061